589  
ASUS42 KMHX 132225  
RWRMHX  
WEATHER ROUNDUP FOR EASTERN NORTH CAROLINA  
NATIONAL WEATHER SERVICE NEWPORT/MOREHEAD CITY NC  
500 PM EST THU DEC 13 2018  
 
NOTE: "FAIR" INDICATES FEW OR NO CLOUDS BELOW 12,000 FEET  
WITH NO SIGNIFICANT WEATHER AND/OR S TO VISIBILITY
 
 
NCZ015>017-031-032-045>047-102-103-132300-  
NORTH COAST  
 
CITY SKY/WX TMP DP RH WIND PRES REMARKS
 
EDENTON NOT AVBL  
ELIZABETH CITY FAIR 50 38 63 S3 30.34R  
KITTY HAWK FAIR 46 38 73 CALM 30.34R  
MANTEO FAIR 47 39 74 CALM 30.35R  
 

 
 
NCZ045>047-081-094-103-104-132300-  
CENTRAL COAST  
 
CITY SKY/WX TMP DP RH WIND PRES REMARKS
 
FRISCO NOT AVBL  
 

 
 
NCZ095-097-098-100-101-132300-  
SOUTHERN COAST  
 
CITY SKY/WX TMP DP RH WIND PRES REMARKS
 
BEAUFORT FAIR 51 44 77 E5 30.34S  
CEDAR ISLAND NOT AVBL  
JACKSONVILLE MOCLDY 52 39 61 CALM 30.32S  
PINEY ISLAND FAIR 48 43 82 E6 30.34S  
WILMINGTON FAIR 53 34 48 E6 30.30S  
 

 
 
NCZ011>013-027>030-043-044-078>080-089-090>093-098-132300-  
COASTAL PLAIN  
 
CITY SKY/WX TMP DP RH WIND PRES REMARKS
 
AHOSKIE FAIR 49 38 66 CALM 30.32F  
CLINTON FAIR 50 37 61 CALM 30.31F  
ELIZABETHTOWN FAIR 50 36 57 NE3 30.30R  
GOLDSBORO FAIR 51 37 58 CALM 30.30  
GREENVILLE FAIR 50 37 62 CALM 30.33S  
HAVELOCK MOCLDY 51 44 77 NE3 30.34S  
KENANSVILLE FAIR 46 41 81 CALM 30.32S  
KINSTON CLEAR 50 39 66 CALM 30.33R  
NEW BERN FAIR 49 40 71 CALM 30.34S  
RICHLANDS FAIR 48 42 80 CALM 30.33R  
ROCKY MOUNT FAIR 47 38 71 CALM 30.32S  
WASHINGTON FAIR 52 37 57 SE5 30.33F  
WHITEVILLE FAIR 50 39 67 CALM 30.29R  
 

 
 
AMZ130-135-150-152-154-156-158-170-250-252-270-ANZ085-086-088-633-658-670-132300-  
MARINE OBSERVATIONS  
 
STATION/POSITION TIME TEMP WIND PRES WAVE SWELL
 
AIR SEA DIR/SP/G HT/PER HT/PER  
(UTC) (F) (DEG/KT/KT) (MB) (FT/S) (FT/S)  
64 E VA BEACH 2150 52 54 320/ 8/ 10 1027.6 2/11 2/11  
DUCK 2200 48 47 120/ 3/ 3 1027.2  
2 E DUCK 2200 46 N/A 2/13 2/13  
10 NE DUCK 2145 52 N/A 2/12 2/12  
OREGON INLET 2148 47 47 190/ 5/ 6 1027.5  
13E OREGON INLT 2146 51 N/A 2/11 2/11  
HATTERAS CG 2200 49 55 150/ 2/ 3 1027.3  
DIAMOND BUOY NOT AVBL  
CAPE LOOKOUT 2200 50/ 6/ 6 1027.5  
BEAUFORT LAB 2200 52 51 100/ 2/ 3 1027.7  
30 SE NEW RVR IN 2208 59 67 90/ 4/ 8 1025.7  
30 SE NEW RVR IN 2200 67 N/A 2/ 8  
27 SE WRIGHTSVLE 2208 60 64 110/ 10/ 12 1026.2  
5 SE WRIGHTSVLE 2208 55 55 90/ 8/ 10 1026.2  
27 SE WRIGHTSVL 2208 60 64 110/ 10/ 12 1026.2  
FRYING PAN BUOY 2210 63 65 60/ 12/ 14 1025.8  
225 S CAPE HAT 2210 73 1026.4  
41 SE CHARLESTON 2210 70 73 110/ 14/ 19 1023.9  
 

 
 
 
CLICK HERE TO GO TO PREVIOUS BULLETINS.

The Nexlab NC Page Main Text Page